RH
10 11 11 11 10 10 9 8 8 8 8 8 8 9 10 11 11 11 10 9 8 7 6 5 4 3 3 3 3 3 3 2 2 2 2 2 2 2 2 2 2 2 3 6 13 22 30 36 36 32 28 24 22 23 27 32 33 35 34 34 33 33 36 48 64 72 87 100 97 97 95 80 74 72 60 49 30 9 6 8 9 11 10 8 8 12 17 18
9 10 10 11 11 11 10 10 9 9 9 8 8 9 9 10 11 12 12 12 10 9 8 6 5 5 4 3 3 3 3 3 3 3 2 2 2 1 2 1 1 2 2 2 5 9 17 26 32 34 31 27 24 22 23 25 28 32 34 35 35 34 41 53 68 74 78 94 98 93 86 72 71 74 62 52 33 9 6 9 8 10 11 8 8 11 14 15
9 9 9 10 10 10 11 11 11 10 10 9 9 9 9 10 10 11 13 14 14 12 10 9 7 6 5 4 4 3 3 3 3 3 3 2 2 2 2 2 1 2 2 2 2 3 6 12 22 30 32 29 27 24 23 23 25 29 31 34 35 35 43 57 76 81 74 86 96 92 83 67 65 69 61 55 44 19 4 7 9 9 12 10 7 10 12 14
9 9 9 9 9 10 10 11 11 11 11 11 10 9 9 10 11 11 12 14 16 16 14 12 10 8 7 6 5 4 3 3 3 3 3 3 3 2 2 2 2 1 2 2 1 2 3 5 13 22 28 29 28 27 25 24 24 26 29 32 35 39 44 60 84 88 77 81 91 95 87 71 68 68 58 52 55 41 13 5 9 8 12 11 9 11 12 14
8 8 9 9 9 9 10 11 11 12 12 12 11 11 10 10 11 12 12 13 15 18 18 15 13 10 9 7 6 5 4 4 3 3 3 3 3 3 3 2 2 2 1 2 2 2 3 4 8 14 21 25 27 27 26 25 24 24 27 29 33 42 47 60 86 93 85 83 87 92 90 81 77 68 55 46 47 44 21 6 8 8 10 10 10 11 12 13
7 7 8 8 9 9 10 11 12 12 12 13 13 12 11 11 11 12 12 13 15 17 20 19 17 14 11 9 8 7 5 4 4 3 3 4 3 3 3 3 2 2 2 2 2 2 3 3 5 8 12 18 22 24 26 25 25 24 25 26 31 43 49 58 82 96 92 86 85 87 84 79 74 65 60 56 48 37 19 7 7 9 9 8 9 11 11 13
7 7 7 8 8 9 9 11 12 13 14 14 14 14 13 12 12 12 13 14 15 17 19 21 20 18 15 12 10 8 6 5 4 4 4 3 4 4 3 3 3 2 2 2 2 2 3 3 4 5 6 10 13 17 21 22 24 23 23 25 28 41 51 54 71 92 95 87 85 86 82 75 69 66 65 67 62 42 20 8 6 8 9 8 8 9 10 11
8 7 7 8 8 8 9 10 12 13 15 16 16 16 15 14 13 13 14 14 16 17 18 20 22 21 18 15 12 9 8 6 5 4 4 4 3 4 4 4 3 3 3 2 2 2 2 3 3 3 4 5 6 10 13 15 19 19 22 24 26 40 49 50 61 80 93 92 87 87 86 79 71 68 64 68 71 50 25 13 7 7 9 8 8 8 9 11
8 7 7 8 9 9 9 10 12 14 16 17 18 18 17 16 15 14 15 16 17 18 19 20 22 23 22 19 15 12 9 7 6 5 5 4 4 4 4 4 4 3 3 2 3 2 2 2 2 3 2 3 3 5 6 10 15 16 19 20 25 37 43 54 65 74 87 90 88 89 91 87 78 73 66 65 72 57 32 20 12 6 7 9 9 8 8 10
8 7 7 8 9 9 9 10 12 15 16 18 20 21 20 19 17 16 16 17 18 19 20 21 22 24 24 23 19 15 12 9 7 6 5 5 4 4 4 4 4 4 4 3 3 2 3 2 2 2 2 2 2 3 4 8 14 15 16 19 25 32 45 64 67 71 84 89 91 92 94 95 87 85 79 68 71 65 41 27 20 10 6 8 9 8 7 8
7 7 7 9 10 9 10 11 13 15 17 20 21 22 22 21 20 18 17 18 19 20 21 22 22 24 25 25 23 18 14 11 8 7 6 5 5 5 4 4 4 5 4 4 4 3 3 2 2 2 2 2 2 3 5 6 11 14 16 19 20 27 51 65 58 67 85 89 94 94 92 96 94 94 93 79 74 73 53 34 27 18 8 7 8 8 7 6
7 7 9 10 11 10 11 13 14 16 18 21 24 25 24 24 22 21 20 19 19 21 23 24 23 24 26 27 26 23 18 13 10 8 6 6 6 6 5 4 4 5 5 5 4 4 3 2 2 2 2 2 2 3 4 5 7 11 16 16 20 36 57 61 56 68 81 85 91 92 91 95 95 95 93 84 76 75 63 42 30 24 15 7 7 8 8 7
7 8 10 12 13 14 15 16 17 18 21 24 26 27 27 26 25 23 21 20 20 21 22 24 25 25 26 28 29 27 22 16 12 9 7 6 6 7 6 5 4 5 5 5 4 4 3 2 2 2 2 3 3 2 3 6 6 10 14 14 22 39 50 57 65 69 74 87 90 90 96 97 97 97 91 83 75 72 68 51 33 28 25 14 6 7 8 7
8 10 13 14 16 19 21 21 21 22 24 27 28 29 29 28 26 24 22 21 20 20 21 23 25 26 27 28 30 30 26 20 14 10 8 7 6 7 7 6 5 5 5 5 5 4 3 3 2 2 2 2 2 3 4 6 7 9 11 14 21 31 42 57 71 69 69 85 89 90 98 97 97 100 97 89 79 71 68 61 41 29 31 26 13 6 7 8
10 13 16 19 22 25 25 24 25 26 27 29 30 30 30 29 27 25 23 22 21 20 21 21 23 26 27 28 30 31 29 25 19 13 9 8 6 7 7 7 6 5 5 5 5 4 4 3 3 2 2 3 2 3 4 4 7 8 11 18 23 35 50 55 63 68 65 75 87 94 96 94 95 98 100 97 89 77 67 67 55 35 33 34 23 10 7 9
13 17 21 24 28 29 28 28 29 31 31 32 32 31 31 30 28 26 24 23 22 21 20 19 20 23 26 28 28 29 30 28 24 17 12 8 7 6 7 7 6 5 5 5 5 4 4 4 4 3 2 2 3 3 3 3 6 7 12 21 28 44 55 51 62 72 70 79 88 95 97 95 97 98 99 99 97 90 74 70 66 46 36 36 32 19 9 10
16 22 27 31 34 33 32 33 34 34 34 33 33 31 30 28 27 25 24 23 21 20 19 17 17 19 21 25 26 27 28 29 28 22 15 10 7 6 7 8 8 7 5 5 5 4 5 5 4 4 3 2 3 3 3 3 5 7 12 22 33 49 56 57 76 82 83 93 89 92 102 98 99 100 99 97 98 99 84 78 77 57 44 39 36 31 17 11
21 28 34 38 40 39 38 38 38 36 35 33 32 30 27 25 23 20 19 18 18 18 17 16 15 15 16 19 23 25 26 28 28 25 19 13 8 6 6 7 8 8 6 5 5 5 4 5 5 4 4 3 3 3 4 4 6 10 15 29 47 63 67 71 89 90 89 100 90 85 94 94 96 97 97 96 97 101 91 87 84 62 51 46 40 38 28 18
24 34 42 47 46 44 43 41 38 36 34 32 28 25 21 18 15 12 11 12 12 12 12 12 12 12 12 14 17 21 23 24 25 25 21 14 10 7 5 6 8 8 7 6 5 5 5 5 4 4 4 3 3 3 5 7 9 12 15 34 63 81 83 82 94 95 88 98 98 89 87 88 92 90 88 90 93 100 95 94 90 66 55 53 45 42 36 28
29 40 50 53 50 48 46 41 38 35 31 27 22 16 11 9 8 5 5 6 6 6 7 8 9 9 10 10 12 14 18 20 22 22 21 17 11 7 6 5 7 8 8 7 5 5 5 5 4 5 5 4 4 3 5 8 11 14 14 29 62 88 94 92 97 98 91 92 95 93 90 84 84 82 79 83 91 98 97 99 95 76 67 61 50 47 42 34
37 48 54 54 51 50 47 40 36 32 26 19 13 8 5 4 4 3 4 4 4 4 4 5 5 6 7 7 8 10 12 16 19 20 20 19 14 8 7 5 6 8 9 9 6 6 5 5 5 6 7 5 4 4 6 10 13 15 15 21 50 82 96 99 100 98 93 88 85 88 88 80 78 81 81 85 91 93 95 101 100 91 86 74 57 51 46 38
38 48 55 56 54 50 45 38 32 25 18 12 6 4 3 3 3 3 3 3 3 3 3 3 3 4 4 5 6 7 8 10 14 17 17 18 16 10 7 6 6 7 10 10 8 7 5 5 6 6 7 6 4 5 5 11 15 17 16 16 40 76 93 100 101 96 91 86 85 89 87 79 76 78 83 90 88 84 87 95 99 99 98 89 70 57 51 45
33 46 57 61 56 48 42 34 25 17 11 6 4 4 3 3 3 2 3 3 3 4 3 3 3 3 3 3 4 5 6 7 9 12 13 14 14 12 9 7 7 7 9 11 10 8 5 5 7 6 7 6 5 6 5 10 14 17 18 16 38 75 92 98 101 97 92 85 87 93 88 79 73 74 83 90 85 77 80 91 98 99 100 99 85 66 57 52
34 50 63 64 55 44 36 26 17 10 5 4 4 3 3 4 3 3 3 3 3 4 4 4 4 3 3 2 3 4 5 6 7 9 11 12 11 11 10 7 7 8 9 11 11 11 8 6 7 7 7 7 5 5 5 9 13 17 18 20 45 79 93 99 100 95 91 85 85 89 86 79 73 76 86 88 82 74 75 86 96 99 99 101 94 76 64 58
41 59 68 62 52 41 29 18 11 7 4 5 4 3 5 4 4 4 4 5 5 5 5 5 4 3 4 3 3 3 4 5 6 8 9 10 11 10 10 8 9 10 10 11 11 12 10 7 7 7 7 7 6 6 5 8 12 16 19 27 57 88 95 98 98 90 86 84 82 82 81 79 73 76 83 80 74 72 74 81 89 97 100 99 98 85 72 66
49 62 67 60 49 36 23 14 9 5 4 5 3 6 6 5 6 5 6 7 6 9 11 8 7 8 5 3 4 3 3 5 6 8 9 9 10 10 10 9 10 11 11 11 12 13 12 9 7 7 8 7 7 6 5 7 10 14 22 36 63 89 95 94 93 87 83 82 81 77 75 77 77 78 79 73 69 69 72 76 78 88 96 97 100 94 80 74
53 61 64 59 44 28 20 16 10 4 5 5 6 9 6 6 7 3 14 22 17 25 27 14 12 16 9 4 5 3 3 6 6 7 9 10 10 10 11 11 11 12 12 11 13 15 14 11 8 7 8 7 7 6 5 6 7 12 26 42 65 90 97 92 85 79 78 78 77 75 70 70 75 77 75 72 71 69 67 67 69 79 91 95 98 98 89 83
57 62 65 58 41 25 18 14 8 4 6 7 9 9 6 7 6 7 25 34 32 42 42 27 21 21 14 7 4 3 5 9 11 9 7 9 10 10 10 11 12 12 12 11 14 17 16 13 10 7 7 7 7 7 6 5 5 14 29 41 63 87 95 92 82 73 74 75 72 71 67 65 68 70 69 67 67 67 65 63 67 75 86 92 96 98 95 90
61 64 64 56 40 24 12 7 5 6 8 9 11 10 7 9 8 11 21 28 40 51 49 43 39 29 22 15 7 5 6 11 17 14 8 7 9 10 11 12 13 12 11 12 16 19 16 14 11 8 7 7 7 8 7 6 6 14 26 39 59 76 84 87 80 72 72 71 69 69 67 65 64 63 63 64 61 58 58 58 65 73 78 83 90 96 97 93
63 63 61 52 35 17 7 6 6 7 10 11 13 13 15 19 19 16 15 24 46 55 49 51 51 41 32 23 15 10 6 9 18 21 17 11 9 10 11 13 13 12 10 10 17 22 17 14 12 10 7 6 8 9 7 7 7 14 27 41 56 65 70 72 70 71 69 65 67 70 69 66 65 64 63 65 64 57 51 49 58 73 78 78 82 90 96 96
61 59 56 46 27 10 6 8 7 9 12 12 16 20 26 31 28 21 16 26 47 55 52 54 55 53 43 31 23 17 10 10 15 22 24 17 12 11 11 13 12 12 11 9 16 22 18 14 12 11 9 7 8 8 8 8 7 14 32 49 57 59 58 55 59 64 60 60 67 71 71 65 64 69 65 62 66 61 53 44 48 69 83 83 81 84 93 99
57 55 51 38 18 7 7 8 8 12 13 12 19 28 34 35 30 23 17 27 50 57 53 52 53 56 50 37 29 22 18 16 13 17 21 18 15 12 12 13 12 12 12 10 15 20 18 15 13 13 12 8 8 8 8 9 6 12 31 50 59 56 50 47 52 53 49 62 77 76 72 64 64 77 70 59 62 62 58 48 43 59 77 84 85 86 92 97
53 53 45 28 12 7 9 8 9 15 16 15 25 35 40 42 41 35 27 33 51 56 53 50 48 52 51 39 32 28 29 30 26 23 21 21 22 18 15 14 13 13 14 14 20 22 20 18 15 16 15 11 9 7 7 9 8 10 23 38 44 40 36 37 42 40 37 60 86 83 75 69 68 77 73 63 61 60 61 57 47 50 61 75 85 88 93 94
49 48 36 20 10 8 10 8 9 21 23 19 28 37 40 44 47 48 47 50 55 56 58 53 42 45 49 40 37 43 47 50 46 39 35 34 32 27 22 18 15 14 15 18 22 22 20 20 19 19 17 13 11 8 7 10 9 11 20 34 36 26 22 26 30 28 27 55 88 86 74 70 70 76 78 72 66 60 61 62 58 52 53 66 80 84 90 95
44 42 28 17 11 9 10 8 9 24 29 20 25 33 34 41 48 51 57 60 62 61 61 55 43 41 45 42 48 61 69 70 60 52 55 52 43 35 28 25 22 18 19 23 24 21 19 21 21 22 20 16 14 10 8 9 10 11 18 30 32 22 22 33 40 34 29 53 86 85 69 67 73 84 87 80 74 67 62 65 66 62 57 64 76 83 89 94
41 37 25 17 12 9 11 8 8 22 29 18 19 27 31 38 42 46 51 54 61 67 65 57 46 43 47 46 51 62 74 80 73 64 65 61 53 46 36 31 29 25 24 28 30 26 23 25 24 23 23 19 16 13 9 9 10 12 14 16 21 27 36 48 54 45 33 45 74 86 78 72 77 88 91 86 83 78 72 72 74 72 68 66 71 81 87 90
38 34 26 18 13 9 10 8 8 20 24 15 13 22 32 37 37 40 43 40 47 62 69 62 52 53 61 57 53 56 62 74 77 70 71 71 66 59 47 38 37 37 35 34 37 33 29 31 29 25 26 23 19 16 11 10 10 11 12 11 20 37 44 47 54 50 36 36 60 85 89 77 76 86 92 91 91 87 82 80 79 80 77 70 67 72 79 84
37 33 28 20 12 10 9 7 10 18 18 10 7 16 31 38 35 36 39 32 31 48 67 70 60 61 69 66 61 55 53 64 71 66 70 77 75 69 58 47 43 45 47 45 46 41 34 37 35 29 30 26 21 19 13 11 12 11 13 13 19 30 34 38 46 44 34 32 47 77 92 81 72 78 90 96 97 93 88 84 83 83 80 74 69 68 70 70
37 34 28 19 10 11 10 7 9 14 12 7 6 14 28 32 27 27 31 28 25 37 60 72 67 62 65 66 65 57 50 57 64 62 62 67 71 71 64 57 51 48 53 59 61 54 44 45 44 34 33 31 24 22 17 12 12 12 14 14 14 22 31 40 44 39 36 34 33 51 74 77 71 72 83 94 97 96 92 88 87 85 81 75 71 70 69 66
38 35 26 16 11 12 11 7 8 9 8 6 6 11 19 23 22 20 22 25 24 32 52 69 72 68 65 65 63 60 56 54 59 65 66 65 72 74 67 65 63 57 58 66 75 74 57 52 57 48 37 35 31 25 20 16 13 12 15 15 13 19 30 41 46 45 46 43 30 26 36 52 65 71 77 87 91 91 92 90 88 86 82 78 73 71 72 74
36 34 23 13 12 13 11 8 8 7 6 6 6 7 10 17 20 16 20 26 24 27 41 56 68 74 73 70 63 61 63 60 58 65 72 72 75 77 72 70 71 70 72 71 76 85 74 66 79 73 48 42 43 33 26 25 19 14 17 18 16 19 26 38 48 46 44 45 36 23 18 27 46 55 63 78 84 84 86 85 84 82 78 76 74 73 74 77
35 33 20 11 12 13 11 9 8 7 6 6 6 6 8 14 18 16 19 26 27 29 32 36 49 63 69 71 68 65 67 67 61 62 71 74 72 73 74 73 71 73 83 87 83 87 87 82 92 93 68 53 54 46 38 41 35 21 18 19 17 17 21 34 48 46 42 41 32 23 18 19 31 37 43 61 75 78 80 79 77 77 74 73 72 71 72 75
37 31 17 11 13 13 12 11 9 7 7 7 6 6 7 11 16 17 18 23 29 34 30 26 36 50 58 64 68 68 69 69 68 64 66 68 66 65 68 74 74 70 76 91 93 88 90 93 98 100 86 69 66 66 61 59 53 38 27 22 21 20 18 26 40 47 50 44 28 20 16 15 33 49 48 51 58 61 65 69 71 73 74 73 72 70 70 70
39 30 15 10 13 15 16 14 11 9 8 7 6 6 6 9 15 17 18 23 29 33 34 34 41 52 60 65 67 68 69 67 68 70 70 70 67 63 63 69 76 76 74 84 93 90 90 97 101 101 96 86 82 86 84 76 70 60 43 28 22 21 18 21 30 39 46 42 28 19 14 17 44 70 67 58 54 49 50 58 65 71 76 78 76 74 74 73
37 30 16 11 13 16 18 16 12 10 8 7 7 6 5 8 14 17 17 20 26 30 37 45 53 58 59 60 60 66 73 71 68 70 72 72 70 67 65 63 68 77 80 81 86 90 93 99 100 99 100 98 94 96 97 91 85 76 57 38 26 23 23 23 27 32 35 32 25 17 14 24 50 76 81 73 66 57 49 50 56 61 66 74 78 76 73 76
34 29 17 13 14 15 17 16 12 10 8 7 7 7 6 6 11 16 17 18 22 27 34 45 53 53 50 53 58 65 73 74 70 69 69 71 74 71 65 61 60 69 79 84 84 87 95 101 100 98 100 100 99 99 98 94 90 80 62 46 36 31 29 26 25 26 28 29 28 21 18 25 43 65 75 73 72 68 57 50 48 44 39 45 62 71 69 68
33 30 20 15 14 14 15 13 10 9 9 8 7 7 7 5 8 15 18 17 18 22 28 36 43 43 42 50 58 64 69 70 68 69 70 72 75 72 64 59 57 60 72 84 85 81 90 99 100 98 98 99 100 97 93 92 90 81 67 56 49 42 34 29 26 26 25 29 31 24 21 31 45 54 53 53 60 67 63 55 50 42 27 18 33 58 64 57
32 30 23 17 15 14 13 10 9 10 10 10 9 8 9 7 6 10 15 18 18 18 21 26 33 42 50 54 57 61 66 68 66 66 67 68 68 69 68 62 56 54 58 73 81 77 80 91 98 100 97 98 101 97 91 90 88 80 68 58 54 51 43 33 29 29 26 27 32 32 32 41 52 51 41 34 39 51 58 57 51 44 29 12 17 42 55 47
33 33 26 19 16 15 13 10 10 10 11 12 10 8 9 8 6 7 9 14 18 18 19 20 22 30 41 46 46 48 54 60 63 64 67 69 65 64 65 63 63 60 53 57 68 71 72 78 88 96 94 94 101 99 92 87 83 79 74 64 57 56 54 43 33 31 28 24 27 32 32 33 35 37 36 31 28 33 42 46 43 35 22 11 14 27 37 40
36 36 30 21 16 15 14 13 11 10 12 14 12 9 10 10 8 7 7 8 11 13 16 18 17 18 22 26 28 29 33 38 44 53 67 75 71 66 64 63 66 68 61 55 56 59 64 68 74 84 89 92 99 100 97 92 83 74 70 66 62 59 59 55 43 33 29 25 22 21 21 18 15 18 24 23 24 33 40 41 35 25 15 9 13 22 34 47
39 39 34 24 16 15 16 15 13 12 13 15 13 11 11 12 10 10 9 7 6 8 9 10 12 13 15 17 19 21 23 22 22 33 54 70 70 68 68 65 64 67 69 67 59 54 56 61 65 71 78 86 92 96 98 96 90 83 73 65 63 61 58 57 53 43 33 26 21 17 13 12 11 17 26 29 33 41 45 41 31 20 14 12 14 23 38 57
43 43 39 29 18 15 15 14 14 14 14 15 14 11 13 15 14 12 12 10 8 8 8 6 6 8 8 9 12 14 17 19 18 20 35 52 61 63 66 67 65 64 66 67 65 59 53 52 56 61 67 76 83 87 92 95 96 98 94 82 73 67 61 56 54 51 41 30 26 24 20 21 22 24 35 48 53 52 47 42 35 26 20 16 15 23 37 55
Wind_Speed
15 16 16 17 18 18 19 20 21 21 21 21 21 23 24 26 27 27 28 27 27 26 25 24 24 24 23 23 24 24 24 24 24 24 25 24 24 23 23 21 19 18 19 20 21 23 23 23 21 19 18 17 16 14 13 13 13 13 13 12 12 8 5 7 9 9 6 9 16 23 25 23 18 15 14 12 11 12 14 13 13 13 11 11 15 18 16 13
15 16 17 17 18 18 19 20 21 22 23 23 23 23 24 25 27 28 29 29 29 28 27 26 25 25 24 24 24 24 25 25 25 25 25 25 25 25 24 22 20 19 19 18 20 22 23 24 23 21 20 19 17 16 14 14 13 13 13 12 12 6 4 6 5 8 9 3 17 26 25 22 20 18 14 12 11 13 15 15 14 14 12 10 14 18 16 13
15 16 17 18 18 19 19 20 21 22 23 24 25 25 25 25 27 28 30 30 30 30 29 28 27 27 25 25 24 25 25 25 26 26 26 26 26 25 24 24 21 20 20 19 19 19 20 22 23 22 22 21 19 18 16 15 14 14 13 12 11 6 3 3 3 6 11 15 21 24 21 19 19 18 15 13 12 12 14 15 16 16 13 10 14 17 16 14
16 16 17 18 19 19 20 21 21 23 24 25 26 26 26 26 26 28 30 31 32 31 30 29 29 29 27 26 25 25 25 25 26 26 26 27 26 25 25 25 23 22 21 20 19 17 17 19 20 22 23 23 22 21 18 17 16 15 14 12 11 5 4 2 6 6 8 16 20 20 19 16 16 17 14 13 14 13 12 14 16 17 16 14 15 17 16 14
19 18 18 18 19 20 20 21 22 23 24 25 26 28 28 27 27 28 29 31 32 32 31 31 30 30 29 28 26 25 26 26 27 27 28 28 27 26 26 26 25 23 22 21 19 17 17 18 19 21 23 24 25 23 21 20 18 17 15 13 10 6 6 5 8 8 8 13 16 18 18 15 14 14 12 10 13 15 14 14 15 17 18 18 17 16 16 14
22 21 20 20 20 21 21 22 23 24 25 26 27 28 29 29 28 28 29 30 32 33 33 32 32 31 31 30 28 27 26 27 28 28 28 29 28 27 26 26 25 24 23 22 20 19 18 18 18 21 23 25 26 25 24 22 20 19 17 14 12 8 8 8 10 11 9 11 14 16 17 16 13 12 11 11 11 13 14 14 14 14 16 19 18 17 16 14
24 24 23 22 22 22 23 23 24 25 26 27 27 28 29 30 30 29 29 29 31 32 33 34 33 33 32 31 31 29 28 28 28 28 29 29 29 27 26 25 25 25 24 23 21 20 20 18 18 20 23 25 26 26 25 23 22 21 19 17 14 10 10 11 11 13 10 8 11 13 15 17 15 13 13 13 11 11 13 14 14 13 14 17 19 17 16 14
28 27 26 25 24 24 24 24 25 26 27 27 28 28 29 30 30 30 30 29 30 31 33 34 34 34 33 32 31 31 30 28 28 28 28 29 29 29 27 25 26 26 25 24 23 23 22 20 20 21 23 25 24 24 24 23 23 22 21 19 16 12 12 13 11 13 12 8 9 12 15 17 17 15 14 14 13 11 12 13 13 14 14 15 18 18 16 15
30 29 29 28 27 27 26 26 26 27 27 28 28 29 29 29 30 30 30 30 29 29 31 33 35 35 34 33 32 32 31 30 29 28 28 28 29 30 28 27 27 27 26 25 24 24 24 22 22 23 24 24 23 23 22 22 23 23 23 21 17 15 14 12 10 9 10 9 11 14 16 17 15 13 12 14 14 11 11 12 12 14 14 15 17 18 18 17
31 31 31 30 30 29 28 28 28 28 28 28 28 28 29 29 29 30 30 30 29 29 30 32 34 35 35 34 33 32 32 31 30 29 28 28 29 30 29 28 28 27 26 25 25 25 25 24 24 24 24 23 22 21 21 22 23 22 22 21 19 17 15 12 9 9 11 13 15 15 16 15 14 13 11 12 13 11 11 11 12 13 14 15 16 16 17 17
32 32 31 31 31 31 30 30 29 28 28 27 27 28 28 29 29 29 30 30 30 29 29 30 32 34 35 35 34 33 33 32 31 30 29 29 29 29 29 29 30 29 27 26 26 27 27 27 26 25 25 23 21 21 22 22 22 22 22 21 21 19 14 12 11 12 14 15 15 16 16 16 15 15 14 13 14 13 12 11 11 13 13 14 15 15 15 16
33 32 32 32 31 31 31 30 30 29 27 26 26 27 27 28 28 29 29 30 30 29 29 30 31 33 34 35 35 33 32 31 30 30 30 30 30 30 30 30 31 31 29 28 28 29 30 29 27 27 26 23 22 23 22 22 22 22 22 22 22 18 13 13 14 15 15 14 14 15 16 17 17 17 16 14 14 15 14 11 11 13 13 14 15 15 15 15
33 33 32 32 31 31 31 30 29 28 27 26 25 26 26 27 28 29 30 30 30 29 29 29 30 32 34 35 34 33 32 31 31 32 32 32 31 31 31 32 32 32 32 31 31 31 30 30 29 29 26 24 24 24 22 21 22 22 22 23 22 18 15 15 16 16 16 16 16 15 15 16 16 17 18 15 14 14 14 11 11 12 12 12 14 15 15 15
34 33 32 31 30 30 30 29 28 27 26 25 25 25 26 27 28 29 30 31 31 30 29 29 30 31 33 33 33 32 33 33 33 33 34 34 33 33 33 33 33 33 34 33 32 31 30 30 30 28 27 26 26 25 23 22 22 22 22 22 21 19 17 16 15 16 17 16 15 16 16 15 14 16 18 17 15 14 14 13 11 11 12 11 12 15 16 16
34 33 32 31 30 30 29 29 28 27 25 24 24 25 26 27 28 29 30 31 31 30 29 28 29 30 32 33 33 34 34 35 35 34 34 35 35 35 35 35 35 35 36 35 33 31 29 28 27 27 28 28 27 26 24 23 23 22 22 22 21 19 17 16 15 15 17 15 11 15 18 15 14 14 15 17 18 16 15 15 12 11 12 11 11 13 15 16
33 32 31 30 30 29 29 28 27 26 25 24 24 25 26 27 28 29 30 31 31 31 30 28 28 30 32 33 34 35 36 36 35 34 34 35 35 35 36 36 36 36 37 36 34 32 30 27 26 28 28 28 27 27 25 24 23 22 22 23 22 20 18 18 17 15 15 15 12 13 16 15 13 12 12 14 18 19 17 17 15 12 11 12 11 12 14 14
32 31 30 29 29 29 29 28 26 25 24 23 23 24 25 27 28 29 30 30 31 30 29 29 28 28 31 32 34 35 36 35 34 34 34 34 35 35 36 37 37 38 38 36 35 33 31 29 28 28 28 28 28 27 26 24 22 21 22 24 23 21 20 18 19 18 15 15 16 16 15 14 12 11 10 11 16 22 20 17 17 15 12 11 11 12 13 14
31 30 29 29 29 29 28 26 25 24 23 22 22 23 25 26 27 27 28 29 29 29 28 28 27 28 30 31 32 34 35 34 33 33 33 33 34 35 36 38 38 39 38 36 35 34 32 31 30 29 28 28 28 26 24 22 20 20 22 23 22 20 20 20 20 22 18 16 18 19 17 16 13 11 11 10 14 23 24 18 17 17 15 12 12 13 13 13
30 29 28 28 28 28 27 25 24 23 21 21 22 23 24 25 25 25 26 26 27 27 26 26 26 27 29 29 30 32 33 33 32 32 33 33 34 35 36 37 38 39 38 37 35 34 34 33 32 30 27 26 25 24 23 23 22 23 24 25 23 20 21 22 22 23 21 18 17 19 19 18 16 14 14 11 12 19 23 20 17 17 16 14 12 12 13 12
30 28 27 27 28 27 26 24 23 21 21 21 21 22 23 23 23 23 23 23 24 24 24 23 24 26 27 28 29 30 31 33 33 33 33 34 34 34 35 36 37 38 38 37 36 35 35 35 33 28 24 23 24 25 26 26 25 24 26 27 26 24 23 23 23 23 24 23 20 20 20 19 18 16 15 12 11 14 18 17 16 16 15 14 13 12 13 13
29 27 27 27 27 26 25 23 22 21 21 21 21 21 21 21 21 21 21 21 21 21 21 21 21 23 25 27 28 29 31 32 33 33 34 35 34 34 35 36 36 37 38 38 37 37 36 35 31 27 24 25 27 28 28 27 26 25 28 30 28 27 26 25 24 23 23 24 21 19 20 20 18 17 14 12 13 14 16 17 17 18 17 16 15 13 13 13
29 27 26 26 26 25 23 22 21 20 20 20 20 19 20 20 19 19 19 19 18 18 18 18 19 21 23 25 28 29 30 31 32 32 33 34 35 35 35 35 36 37 37 38 38 38 37 34 31 29 28 29 30 30 29 28 27 27 29 31 30 28 28 27 25 24 23 22 20 19 20 21 19 16 14 14 15 14 15 18 20 21 19 17 17 15 13 12
29 27 25 25 24 23 22 21 20 19 19 19 18 18 19 19 19 18 17 16 16 15 15 15 16 19 21 24 27 29 30 30 30 30 31 32 33 34 35 35 36 36 37 38 37 37 36 33 32 33 32 32 32 31 30 29 29 28 30 31 30 29 29 29 28 26 23 21 21 19 19 21 20 17 14 15 16 14 13 17 21 21 19 18 19 17 15 14
28 25 24 23 22 21 21 20 19 18 18 18 17 17 18 18 18 17 15 14 13 12 11 11 14 16 19 22 25 27 29 29 29 29 29 30 31 33 34 35 36 37 37 38 38 36 34 33 35 37 35 34 34 32 31 31 31 30 29 30 31 31 31 31 30 27 24 23 22 20 18 20 22 20 16 15 17 16 14 16 19 21 20 20 19 17 16 15
25 24 23 22 21 20 19 19 18 17 16 16 17 17 17 16 16 15 13 11 11 10 8 9 12 15 18 20 23 26 28 29 29 28 28 30 31 32 33 35 36 37 37 37 38 36 34 35 38 39 37 36 35 33 33 33 32 31 29 29 30 32 33 32 29 27 25 23 23 23 21 20 21 22 19 16 16 17 16 16 18 20 22 21 19 18 17 16
24 23 22 20 19 18 18 17 16 16 16 16 17 16 15 14 13 12 10 8 7 8 6 8 10 12 16 19 21 25 27 28 28 28 28 30 31 32 34 35 36 37 37 37 37 36 35 37 39 40 38 37 36 34 33 34 34 33 29 28 30 32 32 31 29 27 25 24 25 27 26 23 21 21 20 17 16 16 16 17 17 18 20 20 19 19 18 17
24 22 20 18 17 16 16 16 16 15 15 16 16 15 13 12 10 9 8 5 5 6 6 8 9 11 13 16 19 23 26 27 27 27 28 29 31 33 34 35 36 37 37 37 36 35 36 38 39 40 39 39 37 35 34 35 36 33 28 28 31 32 32 31 30 28 26 27 29 30 28 26 23 20 19 18 18 17 17 17 17 17 19 19 19 20 19 18
23 21 18 16 15 15 15 15 15 15 16 15 14 12 10 10 8 6 4 2 3 4 5 7 9 11 12 15 18 21 23 25 26 27 27 28 30 33 34 35 36 37 37 37 36 35 36 38 39 40 40 39 37 35 34 36 36 32 29 30 32 32 32 31 30 30 29 30 30 30 28 27 25 21 19 19 20 19 18 17 16 18 20 21 20 21 21 20
21 18 16 15 14 13 13 14 15 15 15 14 12 11 9 8 7 6 3 2 2 3 3 5 8 10 10 13 15 17 20 23 25 26 27 27 30 32 34 36 36 37 37 36 36 36 38 40 40 41 41 40 37 36 35 36 35 32 31 32 32 33 33 32 31 31 32 32 30 29 28 27 26 23 20 20 20 19 19 18 17 18 21 22 22 22 22 22
19 16 14 13 12 11 12 14 14 15 14 12 11 10 8 7 6 5 5 4 4 4 4 5 7 8 8 10 11 13 17 20 21 22 23 26 29 31 34 36 37 37 38 37 36 37 39 41 41 41 40 39 39 39 37 35 33 33 34 34 34 35 35 35 34 33 35 35 31 29 28 27 26 24 22 21 20 20 20 20 18 17 19 22 23 23 23 22
17 15 13 12 10 10 12 14 14 14 12 11 10 9 8 6 4 4 4 4 4 4 5 6 8 8 7 9 10 11 13 15 17 19 21 24 28 32 33 35 37 38 38 37 37 39 41 41 40 40 38 38 39 40 39 36 35 37 39 37 37 38 38 38 37 36 38 34 30 29 29 29 26 24 24 23 21 20 20 21 20 16 16 20 23 24 24 24
16 13 11 10 9 10 12 14 14 12 11 11 10 8 7 5 4 2 2 1 2 4 4 5 6 8 8 10 12 13 13 14 17 19 21 23 27 31 33 35 36 37 37 37 37 39 41 40 39 39 37 37 40 41 40 38 38 42 43 41 41 40 40 40 39 39 38 29 26 28 29 28 25 24 26 26 22 20 19 20 21 19 16 18 22 25 26 26
15 12 10 9 9 10 12 14 13 11 11 12 10 7 5 4 3 2 1 2 3 3 4 4 4 8 9 10 12 13 14 15 16 18 21 23 25 29 32 34 35 37 37 36 36 38 40 40 38 37 38 38 40 41 41 40 41 44 45 44 44 43 43 42 40 40 36 27 25 29 29 27 26 26 28 25 23 22 19 19 20 21 18 17 21 25 27 29
14 11 9 8 9 10 12 13 12 11 12 11 8 6 3 1 1 2 2 2 3 4 5 5 4 8 10 11 12 12 14 15 16 17 19 21 24 28 31 33 34 35 36 35 36 38 39 38 37 36 38 39 39 40 41 42 42 43 45 45 45 44 43 42 40 38 32 26 26 30 31 28 26 27 26 24 23 22 20 18 18 20 20 18 19 21 25 31
13 10 8 8 8 10 11 13 11 11 12 11 8 7 5 2 2 2 3 3 4 5 5 5 5 9 12 13 14 13 14 14 15 16 17 18 22 25 29 32 33 34 35 35 37 38 38 37 37 37 39 39 39 39 41 43 42 43 46 48 47 45 44 42 40 37 31 28 30 32 31 27 24 25 25 24 24 22 20 18 17 18 19 19 18 17 20 27
13 10 8 8 8 9 10 11 11 11 12 11 9 8 6 4 3 4 4 4 5 7 6 6 8 10 13 14 14 14 14 14 14 15 16 17 19 22 25 29 32 32 33 35 36 36 37 37 37 38 38 38 39 39 40 42 43 44 47 49 47 45 44 43 41 38 33 33 35 35 31 27 25 25 26 26 24 21 19 18 16 16 18 19 18 16 16 21
13 10 8 8 8 8 9 10 11 12 12 11 10 8 6 4 4 6 6 4 5 8 7 7 10 12 13 14 14 14 15 15 15 15 15 16 17 19 22 25 28 30 31 34 34 35 35 36 37 38 38 38 38 39 40 42 43 44 45 47 47 46 46 45 43 41 38 37 38 36 32 29 28 27 27 27 26 22 19 18 17 16 17 19 20 18 17 20
13 10 8 7 7 8 9 10 11 11 11 11 10 8 5 4 5 6 6 5 5 8 9 9 11 12 13 15 16 15 15 15 15 15 16 16 16 17 20 22 24 27 29 32 32 33 34 35 36 38 38 37 38 39 40 42 43 44 45 46 47 48 47 46 45 44 41 40 40 37 33 31 30 28 27 27 26 24 22 20 19 17 18 19 19 19 19 20
12 10 8 7 7 7 9 11 11 10 10 11 10 8 5 4 5 6 6 6 6 8 11 11 12 13 13 15 16 16 15 14 14 14 15 15 15 15 18 20 22 25 28 30 30 31 33 34 35 37 37 37 37 38 40 41 43 44 45 46 47 48 47 46 46 45 43 41 41 40 36 34 31 29 29 28 26 25 25 23 20 18 17 17 17 17 17 17
12 9 7 7 7 8 9 11 10 9 9 10 10 8 5 3 4 6 6 6 5 7 10 12 13 13 14 15 16 16 16 15 14 14 13 13 13 13 15 18 20 23 26 28 29 29 32 34 35 35 37 37 37 38 40 41 42 44 46 46 48 49 48 47 47 46 45 43 41 41 41 38 34 31 30 29 28 27 26 25 23 21 19 18 17 17 17 16
11 8 6 7 7 8 9 9 9 8 9 9 10 10 6 2 3 5 6 5 5 6 9 12 14 15 15 16 17 17 17 17 16 15 14 13 13 13 13 15 18 22 25 27 28 29 32 34 34 33 36 37 37 38 40 40 42 44 46 46 48 50 49 48 48 48 47 46 43 41 40 40 37 34 32 31 30 28 27 26 24 23 22 21 20 19 18 18
10 7 6 6 7 7 7 8 8 8 8 9 10 10 6 2 3 5 5 5 5 6 8 11 14 15 16 16 17 19 20 19 18 17 16 15 15 14 13 14 16 19 23 26 28 30 32 35 34 33 36 38 37 39 40 40 41 43 45 46 47 49 51 51 49 49 49 48 46 42 40 39 38 37 35 33 31 29 28 27 26 24 24 24 24 24 22 21
8 6 5 5 5 5 5 6 7 6 7 8 9 10 7 1 2 4 5 4 5 5 5 8 11 13 14 14 15 17 19 21 21 20 18 17 16 16 15 15 15 18 21 25 28 31 33 36 35 32 35 38 37 38 40 40 40 41 43 46 47 49 52 52 51 50 50 50 48 44 41 40 38 36 35 35 33 31 29 28 27 26 26 26 26 26 26 24
7 6 6 6 5 4 4 4 5 4 5 7 8 10 7 1 1 3 5 3 3 3 3 6 8 10 11 11 11 12 15 19 22 21 20 18 18 18 18 18 17 17 19 22 27 31 33 36 36 31 32 38 38 37 39 40 39 40 42 45 47 49 51 53 52 52 51 51 50 46 43 42 39 36 35 35 35 33 31 29 28 27 27 27 26 25 25 25
8 7 7 7 6 6 4 3 4 3 4 5 7 9 8 2 2 1 4 4 2 1 3 5 5 6 8 8 9 9 11 16 20 22 22 21 20 20 20 20 20 18 19 21 25 31 33 37 39 33 30 36 40 37 38 40 39 40 42 44 46 49 50 51 52 53 53 52 51 48 46 45 43 39 36 35 35 34 32 30 29 28 28 29 28 25 23 24
7 7 7 8 8 6 5 3 3 3 4 5 5 8 8 4 1 0 2 3 2 1 2 4 5 5 6 7 7 8 8 11 16 19 21 22 21 22 21 21 21 20 20 20 24 30 34 36 40 39 32 32 38 40 39 40 41 41 42 43 44 47 49 50 51 52 53 53 51 50 48 47 47 45 41 38 37 36 35 34 32 31 30 31 32 30 26 25
7 6 7 8 8 6 5 4 4 4 4 4 4 6 7 6 1 1 0 2 2 2 2 2 4 5 5 5 5 6 7 8 10 12 15 18 19 20 20 20 21 22 21 21 22 27 33 35 37 42 38 30 33 41 42 41 42 42 42 42 42 43 46 48 49 50 52 53 52 51 50 49 49 48 45 43 42 41 39 38 37 35 34 33 34 34 31 29
7 6 6 7 8 6 5 5 4 5 4 3 3 4 5 6 3 1 2 1 0 1 2 1 2 3 4 5 4 4 6 7 9 10 13 16 19 19 19 19 19 21 22 22 22 24 31 35 35 39 41 33 30 39 43 43 43 42 42 41 41 40 42 45 47 48 50 52 52 52 52 51 50 50 48 47 46 45 43 42 40 39 37 35 35 35 34 32
7 6 6 7 7 7 6 5 4 5 5 4 3 4 4 5 4 1 2 4 3 2 2 1 0 1 3 4 3 2 4 5 7 8 10 13 18 20 20 18 17 19 21 23 24 24 27 33 35 38 40 36 32 36 42 43 42 41 39 40 40 39 40 42 44 46 48 50 51 52 53 53 52 51 50 49 48 47 45 44 43 40 39 37 35 34 34 33
8 6 7 7 7 6 6 5 5 5 5 4 3 3 4 4 3 3 2 2 4 4 4 4 4 3 3 3 4 3 3 3 4 5 6 7 12 16 20 19 16 16 19 22 25 25 25 29 34 38 40 38 34 35 38 41 43 42 39 37 37 38 39 40 42 44 46 48 51 52 53 53 53 52 52 50 49 47 45 44 43 41 38 37 35 33 32 32
8 7 7 8 8 7 6 6 6 5 5 4 4 3 3 4 3 3 3 3 3 4 4 5 6 7 6 5 5 5 5 4 4 4 4 3 4 8 14 18 18 17 18 19 22 25 26 28 32 37 40 39 36 36 36 36 39 43 44 41 38 37 38 39 41 43 45 47 49 51 51 52 52 51 51 50 49 47 44 42 41 40 39 36 34 32 31 30
9 8 7 8 8 7 7 6 6 6 7 6 4 3 2 4 3 2 2 2 2 3 3 4 4 6 7 7 7 7 8 7 5 5 4 3 2 4 7 13 17 19 20 19 20 23 25 27 29 34 39 39 37 37 37 33 33 35 41 45 42 38 38 39 39 41 43 45 46 48 48 48 50 51 49 48 46 45 43 41 40 40 39 36 34 33 31 27
Wind_Direction
316 310 305 300 296 293 291 290 289 287 284 279 273 267 262 259 257 256 255 254 253 252 250 249 250 251 248 244 240 239 240 238 236 234 234 233 235 236 234 235 232 228 227 225 224 223 222 222 223 225 229 234 236 237 237 242 247 253 259 264 271 284 316 324 329 355 329 234 174 153 150 139 132 126 118 118 122 121 117 120 126 129 126 111 107 110 115 120
322 316 310 304 298 293 290 288 287 286 284 282 278 272 266 261 258 256 255 253 253 252 251 249 248 248 248 247 243 240 240 239 238 237 235 233 233 235 234 234 231 228 227 224 223 223 222 222 223 223 227 232 235 236 236 241 246 250 255 261 268 277 306 317 343 25 26 139 151 142 139 134 132 129 125 123 121 123 121 122 128 128 127 119 108 109 115 119
326 319 313 307 302 296 291 288 286 284 283 281 279 275 271 265 259 256 254 253 252 251 251 250 248 247 245 246 246 243 240 239 239 238 236 234 234 234 234 234 230 227 228 226 225 224 224 224 223 223 227 231 233 234 234 237 242 247 250 256 262 263 271 306 43 54 64 103 131 135 135 134 133 130 127 123 114 116 124 129 132 129 128 127 113 111 116 119
329 322 315 309 304 299 294 290 286 283 281 279 278 276 273 268 263 258 255 253 252 250 250 249 249 248 245 243 243 243 241 238 238 238 237 236 234 233 232 233 230 226 226 227 227 224 223 224 221 222 226 230 231 232 231 233 238 243 246 250 255 252 245 224 103 93 92 111 128 134 136 136 136 136 132 131 122 114 124 134 135 132 132 132 121 117 121 124
334 327 320 313 307 302 297 291 287 283 279 277 276 275 273 270 266 261 257 254 252 250 249 249 248 247 246 244 241 241 241 238 236 236 237 237 235 232 232 232 230 226 224 225 225 221 218 217 215 217 222 227 230 231 231 231 234 239 241 244 246 238 236 202 133 122 122 125 133 138 141 142 147 147 134 130 128 123 128 136 135 135 137 134 128 125 126 129
335 330 324 317 310 305 299 293 287 283 279 276 274 273 272 270 267 264 259 255 252 250 249 248 247 246 245 244 241 239 238 236 236 235 235 237 236 233 232 232 231 228 224 223 223 220 217 213 209 212 218 224 227 229 229 229 230 235 237 239 237 229 232 209 154 141 146 144 144 148 150 150 153 148 132 125 124 125 131 136 134 138 140 135 132 132 131 132
334 330 325 319 312 306 300 295 289 284 281 277 274 272 271 270 268 266 262 257 252 249 248 247 246 245 244 243 242 239 237 236 236 235 234 236 236 234 232 231 232 229 225 222 220 220 218 212 207 209 216 221 224 226 227 228 228 232 234 235 232 223 230 225 178 155 159 159 155 160 162 160 156 149 141 132 125 128 133 136 136 141 146 138 135 135 133 132
332 328 325 319 313 307 302 296 291 286 282 279 276 273 270 269 268 267 265 260 254 249 247 247 246 245 244 243 241 240 238 236 235 234 234 235 235 235 232 229 230 229 226 222 218 218 217 211 207 208 214 220 222 223 224 225 225 227 230 232 231 222 226 228 201 168 156 158 173 177 177 170 161 155 149 136 128 134 137 138 140 144 150 144 139 138 136 134
329 326 323 319 314 309 304 298 293 288 284 280 277 273 271 269 267 267 266 263 258 251 246 245 245 245 244 242 241 239 238 236 234 232 231 233 234 235 232 229 229 228 226 223 218 219 218 211 208 209 214 218 219 221 221 221 221 223 225 228 228 224 225 221 201 171 151 165 190 186 181 176 165 159 150 136 132 139 141 143 149 147 151 152 146 144 143 142
326 324 321 318 313 309 305 301 296 291 287 282 279 275 272 269 267 265 265 264 261 255 247 244 244 244 243 242 241 239 237 236 235 233 230 229 230 233 232 230 230 229 227 224 219 219 219 214 211 210 213 216 217 219 219 217 217 218 221 226 226 223 224 215 191 176 171 183 195 186 182 181 170 162 154 141 138 143 144 145 157 154 152 156 153 150 149 147
323 321 318 315 311 308 305 302 299 295 290 286 281 276 273 269 266 264 263 263 261 256 250 244 241 242 242 241 240 238 236 235 234 234 232 228 226 228 230 229 230 229 226 224 220 217 217 214 211 212 215 214 214 217 218 216 215 214 216 222 226 222 219 212 197 194 192 191 193 190 189 186 178 172 167 158 149 148 148 148 157 158 155 157 157 155 153 152
321 319 316 313 309 306 304 302 299 297 293 288 282 276 272 268 265 262 260 259 258 255 250 244 240 239 240 240 239 238 236 234 232 231 231 228 224 223 225 227 228 229 225 222 220 217 216 214 210 212 215 212 213 216 216 216 216 212 211 216 223 221 213 209 202 200 200 195 196 198 194 187 182 181 176 169 163 154 151 154 156 154 156 158 158 159 158 158
320 317 314 311 308 305 303 302 299 297 294 289 283 276 271 266 263 260 258 257 256 254 250 244 240 238 238 239 239 238 236 233 230 228 228 227 223 220 220 222 225 228 227 224 223 220 216 214 211 211 211 210 213 215 214 214 215 212 209 213 219 219 212 207 202 202 202 195 196 199 196 192 187 187 184 175 169 159 152 158 159 152 154 158 160 161 162 164
319 317 314 310 308 306 304 302 300 297 294 288 282 276 270 265 262 259 258 257 256 255 251 245 240 236 236 237 238 237 235 232 229 226 225 225 223 219 216 218 220 224 226 226 226 225 221 217 214 210 208 209 211 213 212 212 214 212 209 211 216 219 217 210 203 204 206 198 196 197 196 197 194 190 187 182 174 164 157 161 166 157 152 157 161 162 166 167
319 317 314 310 309 307 306 303 300 297 293 287 281 275 271 267 263 260 258 257 256 254 252 247 240 236 234 234 235 235 233 231 229 226 226 225 223 221 217 216 217 220 223 224 224 226 225 222 219 213 210 210 209 211 211 210 211 211 207 209 214 218 218 216 210 209 209 200 195 200 197 196 198 197 195 189 180 173 167 163 168 167 156 157 161 161 166 169
319 317 314 311 310 309 307 304 300 296 292 287 281 277 273 269 265 261 259 257 256 254 252 247 241 235 232 232 232 232 232 232 230 228 227 225 224 223 219 216 216 217 221 223 223 223 224 223 222 218 214 211 210 210 210 209 208 207 205 206 211 216 217 219 217 212 205 193 185 191 192 192 194 199 203 195 186 184 178 167 168 173 164 161 161 158 162 168
319 317 314 311 310 309 307 304 300 296 292 288 284 280 276 272 268 265 261 259 257 255 252 248 242 236 232 231 230 231 232 231 230 229 227 226 225 223 221 218 216 216 219 221 222 222 222 221 220 219 216 213 212 211 209 209 207 203 202 205 209 214 216 219 218 211 195 182 186 185 182 185 184 185 193 198 196 192 185 173 168 171 170 167 164 161 163 169
318 316 314 311 310 309 307 304 301 298 294 291 287 284 280 276 272 269 266 262 259 257 253 249 244 237 233 231 230 231 232 231 230 229 228 227 226 224 222 220 217 216 217 219 220 221 221 221 219 217 215 213 212 212 210 209 206 201 199 202 208 214 218 217 216 213 196 180 193 197 188 184 182 179 180 193 204 195 188 184 175 171 172 172 170 168 170 172
316 315 314 312 311 309 307 305 302 300 296 293 290 287 283 280 276 273 270 266 263 260 256 250 244 239 235 231 229 229 230 230 228 226 225 225 225 225 223 222 220 218 217 217 218 219 220 221 220 217 214 213 213 212 210 208 205 199 196 197 201 210 218 216 214 215 206 189 192 202 196 185 181 183 181 182 199 193 190 193 184 172 170 175 179 175 174 176
315 315 314 314 312 309 307 305 304 300 297 295 292 289 287 284 282 279 275 271 267 263 259 253 246 240 236 231 228 227 227 227 226 223 222 222 222 223 223 221 221 220 218 216 215 217 218 220 221 218 214 212 212 211 210 208 204 199 196 197 197 203 213 213 210 213 212 202 197 201 203 195 185 188 188 179 183 189 192 197 190 176 170 176 187 187 180 179
314 314 314 314 312 309 307 306 303 301 298 297 294 292 292 290 288 286 282 278 272 266 261 255 247 241 235 230 227 225 225 225 225 223 221 221 220 221 221 221 220 220 220 217 214 214 216 218 219 216 212 210 209 210 209 208 206 200 197 197 197 201 209 212 211 212 213 211 209 209 212 210 198 193 193 184 180 186 191 196 194 183 176 179 189 197 191 180
315 314 313 313 311 309 307 305 303 301 301 299 297 297 297 295 293 291 287 282 277 271 265 258 248 240 233 228 225 223 223 224 224 222 221 221 220 219 219 219 218 218 219 219 216 214 213 214 213 212 211 209 209 209 207 207 206 202 198 197 195 200 210 215 217 217 215 213 213 216 216 213 207 199 196 195 190 191 192 196 197 188 181 183 190 199 198 183
316 315 314 312 310 308 307 304 303 303 303 301 301 304 303 301 298 294 290 285 280 273 267 258 246 237 231 226 222 221 221 221 221 220 219 219 219 218 217 217 217 216 217 218 217 217 214 209 209 211 211 210 209 208 206 206 208 205 200 197 195 198 207 215 218 217 216 213 210 214 217 213 208 202 202 206 202 198 195 197 200 192 183 187 193 198 198 189
318 317 315 311 309 308 306 304 305 306 305 304 307 310 308 305 300 296 291 286 282 275 264 251 237 230 226 224 221 219 219 219 218 217 215 215 217 218 217 215 215 215 215 215 216 216 213 208 208 211 211 210 210 208 205 205 209 208 203 197 194 197 205 212 215 216 215 214 212 211 216 216 210 205 206 211 207 202 198 195 197 195 190 192 195 200 200 196
320 319 315 311 308 307 305 306 308 309 307 309 313 313 310 305 299 295 291 285 281 274 260 242 229 223 221 219 218 218 218 217 216 215 212 211 212 214 216 216 214 214 213 214 214 212 209 208 210 210 209 209 210 208 205 205 209 209 204 197 194 198 205 210 212 215 215 216 218 214 213 217 214 211 213 214 210 207 205 201 198 199 202 199 194 198 204 205
322 320 316 311 309 307 306 310 312 311 311 315 317 315 313 305 295 290 285 280 280 271 246 224 220 219 219 217 215 215 216 217 216 214 211 209 208 209 213 215 214 214 213 212 212 209 208 209 211 210 209 209 209 207 206 206 209 209 203 196 196 199 204 208 209 212 214 215 220 219 215 216 216 214 215 213 211 210 207 204 203 202 205 204 196 196 204 209
324 322 318 313 310 308 310 314 315 315 318 321 320 318 315 305 291 285 278 264 267 263 234 214 209 211 214 215 215 214 215 216 215 213 211 209 207 207 210 213 213 214 213 213 210 207 208 210 211 210 209 209 209 207 206 208 210 208 201 198 199 198 202 208 208 209 213 216 220 221 217 215 216 214 212 210 213 214 206 202 206 203 199 202 202 198 202 207
325 324 320 315 311 311 315 319 320 324 327 326 325 323 318 306 291 281 270 232 230 240 224 211 210 211 207 209 215 215 214 214 214 213 211 207 206 206 208 211 212 212 213 213 209 204 206 210 211 210 209 209 208 208 208 210 211 206 201 201 201 200 202 208 209 207 214 219 221 223 220 216 217 218 214 211 213 214 208 201 204 205 198 200 205 203 203 204
326 324 320 317 314 315 321 325 328 331 331 330 331 330 320 305 292 278 253 198 206 238 231 220 222 223 210 205 211 212 212 213 213 214 211 206 205 206 207 208 210 211 211 210 207 204 206 209 210 211 210 207 205 207 208 210 209 204 204 205 203 203 206 210 211 209 215 220 220 222 222 218 217 217 216 214 212 210 207 202 201 204 201 200 203 203 204 205
327 325 321 319 316 317 324 331 335 334 333 336 338 336 323 311 305 287 257 225 228 254 250 229 230 238 222 206 208 209 210 213 213 213 210 205 202 204 207 208 209 209 209 208 205 205 208 210 210 211 211 207 203 205 207 207 205 203 206 206 204 206 209 213 213 213 218 220 219 221 221 219 216 212 211 213 210 208 206 204 203 204 202 200 202 201 202 206
329 327 323 321 317 317 327 337 339 336 339 346 347 343 335 334 333 293 254 224 231 247 243 226 226 236 223 200 201 204 206 210 211 209 207 205 202 202 206 209 209 210 209 207 204 205 209 211 211 211 210 207 204 205 204 203 201 203 205 205 205 208 210 214 213 214 219 219 220 223 221 220 216 210 210 210 209 208 207 206 206 203 200 199 201 201 201 204
334 330 326 322 317 319 331 340 341 339 347 356 358 356 357 3 357 314 249 220 244 253 249 232 225 228 218 198 195 195 195 203 207 206 204 204 204 204 205 208 209 209 209 206 204 205 209 212 211 209 209 206 206 205 203 201 201 203 205 204 206 208 212 215 213 216 218 214 218 225 224 221 214 210 213 210 206 207 207 208 207 205 200 196 198 202 203 205
337 334 328 321 316 322 334 340 340 344 356 3 5 4 8 18 7 355 324 259 258 269 277 265 229 217 211 200 196 193 190 195 200 202 203 201 202 205 206 208 209 208 207 204 203 205 208 211 210 207 207 206 207 206 203 201 202 205 206 207 209 211 215 217 215 217 216 209 215 224 224 219 211 212 216 211 206 206 206 208 209 210 208 202 201 203 206 208
339 336 329 319 318 327 337 341 342 352 1 3 2 350 340 343 2 13 354 301 275 278 286 282 226 199 199 195 189 186 187 194 196 197 201 201 200 202 204 207 209 208 206 203 202 205 206 209 208 206 207 207 207 207 205 203 203 205 206 209 213 215 219 221 221 221 216 209 217 225 225 218 210 214 217 213 211 209 207 208 210 214 214 211 209 209 212 211
342 336 328 320 323 332 339 342 348 360 4 359 347 329 319 309 311 329 332 313 293 281 279 269 219 191 193 191 181 181 187 195 202 198 199 203 204 204 203 205 208 208 205 203 203 205 204 205 205 205 208 208 206 207 207 205 204 205 206 209 213 217 220 223 225 225 217 211 219 226 226 219 210 212 214 213 214 212 212 212 212 215 216 215 212 212 218 209
343 336 329 323 326 334 340 343 353 4 2 352 339 328 326 331 319 304 296 296 291 281 266 244 217 195 192 190 181 184 190 198 208 207 204 207 210 210 207 207 209 207 203 202 204 204 203 203 203 204 207 208 206 206 208 208 206 206 208 211 214 216 218 221 224 226 218 211 216 223 225 219 210 210 213 212 211 209 211 213 212 214 217 220 215 209 213 205
343 338 329 322 326 331 336 347 1 5 358 347 340 333 333 338 323 301 284 274 277 274 258 226 211 199 193 192 188 189 193 200 210 211 211 212 213 214 214 212 211 208 204 202 203 203 201 202 202 202 205 207 206 205 207 208 208 208 209 212 214 214 217 219 222 225 221 214 214 218 220 218 212 210 213 213 208 204 206 209 210 211 214 221 220 213 209 208
341 338 327 319 324 327 336 356 7 4 354 346 343 339 336 335 322 306 288 271 263 261 250 226 214 210 200 195 196 198 197 202 211 214 215 217 218 218 218 217 215 211 206 202 201 202 200 200 203 202 202 205 205 205 206 207 208 208 209 211 213 215 218 220 221 224 224 218 214 214 217 218 215 210 213 214 208 203 203 207 210 212 214 219 222 218 214 216
338 335 325 319 324 330 344 0 6 1 353 349 349 343 333 329 319 307 290 272 258 250 243 229 220 222 216 205 204 209 209 209 217 222 223 225 227 227 223 220 217 214 209 204 200 199 198 199 203 203 202 202 203 205 206 207 207 208 209 210 212 216 218 220 222 225 226 224 218 215 217 220 218 213 213 215 211 205 205 207 210 214 219 222 224 221 218 221
335 332 326 321 329 340 349 358 359 354 352 355 357 350 337 328 314 307 295 277 254 240 239 230 221 226 230 223 216 218 220 219 223 229 233 234 234 234 230 223 219 215 212 206 199 196 196 197 200 202 202 202 202 204 206 207 207 208 210 210 211 214 217 219 222 225 226 227 224 219 218 221 222 217 215 217 215 210 208 209 211 215 219 223 226 223 218 217
331 329 326 323 335 346 349 353 352 346 350 1 4 357 348 322 304 314 318 297 256 231 233 231 225 227 233 232 227 225 225 227 228 230 234 236 234 234 233 226 222 218 212 207 201 196 195 196 197 200 202 202 201 203 205 207 208 208 209 210 211 213 216 218 222 225 227 228 227 223 221 222 224 222 220 221 220 216 213 212 212 215 218 220 222 224 219 214
326 322 318 317 332 345 343 345 348 343 350 1 4 359 350 299 284 322 337 317 276 249 236 228 225 226 229 231 231 230 230 232 235 233 233 235 234 234 234 229 228 225 216 208 203 199 196 195 195 197 201 202 201 202 204 205 207 209 209 210 212 214 216 218 220 225 228 229 229 227 224 224 225 226 224 222 223 221 219 218 215 215 218 218 220 222 221 217
316 304 296 296 312 329 329 340 350 344 342 352 3 3 357 305 258 329 349 330 286 270 244 220 217 221 225 230 235 236 234 234 238 237 235 239 239 236 236 233 231 232 224 213 206 201 197 195 195 197 201 202 201 202 204 205 206 208 210 210 211 214 217 218 220 223 227 230 231 230 228 227 227 229 226 223 225 226 225 224 221 219 220 220 220 222 223 223
301 281 270 273 285 292 295 337 4 344 325 342 4 9 7 41 207 328 1 360 300 278 244 217 214 218 223 229 238 241 237 234 236 238 237 242 244 240 239 237 234 233 229 221 210 203 200 198 197 198 200 202 203 202 204 206 207 208 211 210 210 213 217 219 221 222 225 229 231 230 229 229 230 230 227 224 228 231 230 228 223 222 224 224 223 224 226 228
296 275 259 260 269 273 277 327 16 349 319 337 4 14 15 34 197 323 15 32 21 284 234 231 229 229 234 241 244 243 237 229 231 235 238 243 247 246 243 240 237 234 230 227 216 207 205 203 201 200 199 198 202 205 205 205 207 210 212 212 212 213 216 218 220 223 225 228 231 231 230 230 230 230 230 229 231 235 235 232 227 226 229 230 230 230 231 231
298 274 255 254 261 268 275 296 350 350 331 337 2 20 20 20 186 211 33 51 66 98 198 227 238 238 241 250 250 243 237 228 228 235 240 244 245 245 243 240 238 235 229 228 222 213 210 209 206 205 201 195 198 204 206 206 208 211 214 215 214 215 217 219 220 223 225 228 231 232 232 232 231 232 233 233 234 237 239 238 235 234 236 237 237 237 238 238
302 275 255 253 258 265 272 279 306 330 331 338 5 23 22 20 42 188 90 62 76 80 117 188 230 244 245 250 246 235 234 234 235 241 245 246 244 241 238 237 237 236 230 226 224 219 214 215 215 212 206 196 195 202 206 207 209 212 214 216 218 218 219 221 221 223 225 227 230 232 233 233 234 236 237 236 236 237 239 241 240 242 245 245 241 240 241 243
306 276 253 253 259 265 271 277 295 314 316 334 16 29 28 29 39 203 236 245 186 33 54 120 185 248 267 271 259 242 244 247 248 250 249 245 242 240 237 234 233 234 231 225 224 223 219 220 225 222 214 203 196 200 205 207 209 213 215 217 220 221 221 222 223 224 226 227 229 231 233 234 235 238 240 239 239 239 240 243 244 246 249 249 245 242 244 246
309 280 250 246 255 264 275 283 291 302 305 316 2 28 34 35 39 54 243 247 249 272 310 333 90 249 285 294 296 292 277 271 270 273 265 247 237 236 236 235 232 231 230 227 225 226 224 224 229 231 224 214 203 202 206 208 210 214 215 216 219 221 222 223 224 225 225 226 228 229 232 234 235 238 241 241 241 242 244 246 249 250 251 249 247 246 246 247
310 286 258 244 246 257 272 279 274 277 291 307 333 11 36 34 27 33 17 289 267 263 268 282 287 284 290 299 309 324 317 305 311 311 295 259 237 233 232 232 233 228 226 228 228 228 228 227 229 233 232 226 214 208 210 210 210 214 217 217 217 219 222 223 224 226 226 226 227 228 230 234 236 238 241 243 244 245 247 249 251 252 252 249 246 246 246 247
310 288 264 248 244 249 259 268 267 263 269 288 306 334 33 41 18 13 17 351 313 292 281 280 282 283 286 286 289 300 306 316 336 336 322 290 242 234 229 228 230 228 223 224 227 228 229 229 229 230 233 234 227 215 214 215 213 213 216 217 216 216 220 223 225 226 227 226 227 228 229 232 235 238 240 243 245 247 248 250 250 250 249 247 244 243 244 247
307 289 267 249 239 238 247 260 265 260 258 262 275 302 20 43 25 4 356 327 320 326 317 305 293 288 290 288 282 283 287 291 305 322 330 320 272 250 236 230 231 231 228 225 225 226 227 228 230 230 232 237 235 224 221 223 218 213 213 213 212 212 215 221 226 227 228 228 229 230 230 231 234 237 239 242 244 246 247 248 248 247 246 245 243 242 243 247